Time,TemperatureF,DewpointF,PressureIn,WindDirection,WindDirectionDegrees,WindSpeedMPH,WindSpeedGustMPH,Humidity,HourlyPrecipIn,Conditions,Clouds,dailyrainin,SoftwareType,DateUTC
2013-08-19 00:02:00,71.2,70.0,30.06,East,88,2.0,3.0,96,0.00,,,0.02,meteohub,2013-08-19 05:02:00,
2013-08-19 00:07:00,71.2,70.0,30.06,East,87,1.0,3.0,96,0.00,,,0.02,meteohub,2013-08-19 05:07:00,
2013-08-19 00:12:00,71.1,69.8,30.06,East,93,0.0,5.0,96,0.00,,,0.02,meteohub,2013-08-19 05:12:00,
2013-08-19 00:17:00,71.1,69.8,30.05,East,90,3.0,5.0,96,0.00,,,0.02,meteohub,2013-08-19 05:17:00,
2013-08-19 00:22:00,71.1,69.8,30.05,East,101,1.0,3.0,96,0.00,,,0.02,meteohub,2013-08-19 05:22:00,
2013-08-19 00:27:00,71.1,69.8,30.05,East,96,1.0,3.0,96,0.00,,,0.02,meteohub,2013-08-19 05:27:00,
2013-08-19 00:32:00,70.9,69.6,30.06,East,100,1.0,3.0,96,0.00,,,0.02,meteohub,2013-08-19 05:32:00,
2013-08-19 00:37:00,70.9,69.6,30.05,East,100,2.0,3.0,96,0.00,,,0.02,meteohub,2013-08-19 05:37:00,
2013-08-19 00:42:00,70.9,69.6,30.05,East,93,1.0,3.0,96,0.00,,,0.02,meteohub,2013-08-19 05:42:00,
2013-08-19 00:47:00,70.9,69.6,30.06,East,92,1.0,3.0,96,0.00,,,0.02,meteohub,2013-08-19 05:47:00,
2013-08-19 00:52:00,70.9,69.6,30.06,East,92,0.0,3.0,96,0.00,,,0.02,meteohub,2013-08-19 05:52:00,
2013-08-19 00:57:00,70.7,69.4,30.05,East,92,1.0,3.0,96,0.00,,,0.02,meteohub,2013-08-19 05:57:00,
2013-08-19 01:02:00,70.5,69.3,30.05,East,96,2.0,3.0,96,0.00,,,0.02,meteohub,2013-08-19 06:02:00,
2013-08-19 01:07:00,70.5,69.3,30.05,East,89,3.0,3.0,96,0.00,,,0.02,meteohub,2013-08-19 06:07:00,
2013-08-19 01:12:00,70.5,69.3,30.06,East,100,3.0,6.0,96,0.00,,,0.02,meteohub,2013-08-19 06:12:00,
2013-08-19 01:17:00,70.5,69.3,30.06,ESE,102,1.0,7.0,96,0.00,,,0.02,meteohub,2013-08-19 06:17:00,
2013-08-19 01:22:00,70.5,69.3,30.05,ESE,109,1.0,7.0,96,0.00,,,0.02,meteohub,2013-08-19 06:22:00,
2013-08-19 01:27:00,70.5,69.3,30.05,East,88,5.0,7.0,96,0.00,,,0.02,meteohub,2013-08-19 06:27:00,
2013-08-19 01:32:00,70.5,69.3,30.05,East,82,3.0,7.0,96,0.00,,,0.02,meteohub,2013-08-19 06:32:00,
2013-08-19 01:37:00,70.5,69.3,30.05,ESE,123,2.0,7.0,96,0.00,,,0.02,meteohub,2013-08-19 06:37:00,
2013-08-19 01:42:00,70.5,69.3,30.05,ESE,114,1.0,6.0,96,0.00,,,0.02,meteohub,2013-08-19 06:42:00,
2013-08-19 01:47:00,70.5,69.3,30.04,SSE,150,4.0,5.0,96,0.00,,,0.02,meteohub,2013-08-19 06:47:00,
2013-08-19 01:52:00,70.5,69.3,30.04,ESE,103,2.0,4.0,96,0.00,,,0.02,meteohub,2013-08-19 06:52:00,
2013-08-19 01:57:00,70.3,69.1,30.04,ESE,102,2.0,5.0,96,0.00,,,0.02,meteohub,2013-08-19 06:57:00,
2013-08-19 02:02:00,70.3,69.1,30.04,ESE,119,1.0,7.0,96,0.00,,,0.02,meteohub,2013-08-19 07:02:00,
2013-08-19 02:07:00,70.3,69.1,30.04,ESE,112,1.0,7.0,96,0.00,,,0.02,meteohub,2013-08-19 07:07:00,
2013-08-19 02:12:00,70.3,69.1,30.04,East,85,5.0,5.0,96,0.00,,,0.02,meteohub,2013-08-19 07:12:00,
2013-08-19 02:17:00,70.3,69.1,30.04,SE,131,2.0,7.0,96,0.00,,,0.02,meteohub,2013-08-19 07:17:00,
2013-08-19 02:22:00,70.3,69.1,30.04,ESE,110,2.0,7.0,96,0.00,,,0.02,meteohub,2013-08-19 07:22:00,
2013-08-19 02:27:00,70.3,69.1,30.04,ESE,116,2.0,7.0,96,0.00,,,0.02,meteohub,2013-08-19 07:27:00,
2013-08-19 02:32:00,70.2,68.9,30.04,SE,129,4.0,6.0,96,0.00,,,0.02,meteohub,2013-08-19 07:32:00,
2013-08-19 02:37:00,70.2,68.9,30.04,ESE,119,2.0,6.0,96,0.00,,,0.02,meteohub,2013-08-19 07:37:00,
2013-08-19 02:42:00,70.2,68.9,30.04,ESE,102,1.0,7.0,96,0.00,,,0.02,meteohub,2013-08-19 07:42:00,
2013-08-19 02:47:00,70.2,68.9,30.04,SE,129,1.0,7.0,96,0.00,,,0.02,meteohub,2013-08-19 07:47:00,
2013-08-19 02:52:00,70.2,68.9,30.04,ESE,120,1.0,5.0,96,0.00,,,0.02,meteohub,2013-08-19 07:52:00,
2013-08-19 02:57:00,70.2,68.9,30.04,SE,131,1.0,6.0,96,0.00,,,0.02,meteohub,2013-08-19 07:57:00,
2013-08-19 03:02:00,70.2,68.9,30.04,ESE,119,2.0,6.0,96,0.00,,,0.02,meteohub,2013-08-19 08:02:00,
2013-08-19 03:07:00,70.2,68.9,30.03,East,99,1.0,6.0,96,0.00,,,0.02,meteohub,2013-08-19 08:07:00,
2013-08-19 03:12:00,70.0,68.7,30.03,ESE,120,1.0,6.0,96,0.00,,,0.02,meteohub,2013-08-19 08:12:00,
2013-08-19 03:17:00,70.0,68.7,30.03,East,95,0.0,6.0,96,0.00,,,0.02,meteohub,2013-08-19 08:17:00,
2013-08-19 03:22:00,70.0,68.7,30.03,East,85,1.0,6.0,96,0.00,,,0.02,meteohub,2013-08-19 08:22:00,
2013-08-19 03:27:00,70.0,68.7,30.03,East,101,2.0,3.0,96,0.00,,,0.02,meteohub,2013-08-19 08:27:00,
2013-08-19 03:33:00,70.0,68.7,30.03,ESE,123,0.0,3.0,96,0.00,,,0.02,meteohub,2013-08-19 08:33:00,
2013-08-19 03:38:00,70.0,68.7,30.03,SE,126,2.0,3.0,96,0.00,,,0.02,meteohub,2013-08-19 08:38:00,
2013-08-19 03:43:00,69.8,68.5,30.03,ESE,119,2.0,3.0,96,0.00,,,0.02,meteohub,2013-08-19 08:43:00,
2013-08-19 03:48:00,69.8,68.5,30.03,ESE,109,1.0,7.0,96,0.00,,,0.02,meteohub,2013-08-19 08:48:00,
2013-08-19 03:53:00,69.6,68.4,30.03,SE,132,2.0,7.0,96,0.00,,,0.02,meteohub,2013-08-19 08:53:00,
2013-08-19 03:58:00,69.6,68.4,30.02,ESE,122,4.0,7.0,96,0.00,,,0.02,meteohub,2013-08-19 08:58:00,
2013-08-19 04:03:00,69.6,68.4,30.02,ESE,111,2.0,7.0,96,0.00,,,0.02,meteohub,2013-08-19 09:03:00,
2013-08-19 04:08:00,69.6,68.4,30.02,SE,128,3.0,5.0,96,0.00,,,0.02,meteohub,2013-08-19 09:08:00,
2013-08-19 04:14:00,69.6,68.4,30.02,SE,132,1.0,5.0,96,0.00,,,0.02,meteohub,2013-08-19 09:14:00,
2013-08-19 04:19:00,69.6,68.4,30.02,East,97,2.0,5.0,96,0.00,,,0.02,meteohub,2013-08-19 09:19:00,
2013-08-19 04:24:00,69.6,68.4,30.02,ESE,123,2.0,5.0,96,0.00,,,0.02,meteohub,2013-08-19 09:24:00,
2013-08-19 04:29:00,69.6,68.4,30.02,ESE,102,2.0,5.0,96,0.00,,,0.02,meteohub,2013-08-19 09:29:00,
2013-08-19 04:34:00,69.6,68.4,30.01,ESE,116,1.0,4.0,96,0.00,,,0.02,meteohub,2013-08-19 09:34:00,
2013-08-19 04:39:00,69.6,68.4,30.02,ESE,106,1.0,5.0,96,0.00,,,0.02,meteohub,2013-08-19 09:39:00,
2013-08-19 04:44:00,69.6,68.4,30.01,ESE,110,0.0,5.0,96,0.00,,,0.02,meteohub,2013-08-19 09:44:00,
2013-08-19 04:49:00,69.6,68.4,30.01,ESE,111,1.0,5.0,96,0.00,,,0.02,meteohub,2013-08-19 09:49:00,
2013-08-19 04:54:00,69.6,68.4,30.02,East,99,1.0,5.0,96,0.00,,,0.02,meteohub,2013-08-19 09:54:00,
2013-08-19 05:00:00,69.6,68.4,30.02,East,97,2.0,5.0,96,0.00,,,0.02,meteohub,2013-08-19 10:00:00,
2013-08-19 05:05:00,69.6,68.4,30.02,East,89,3.0,5.0,96,0.00,,,0.02,meteohub,2013-08-19 10:05:00,
2013-08-19 05:10:00,69.6,68.4,30.02,ESE,104,2.0,7.0,96,0.00,,,0.02,meteohub,2013-08-19 10:10:00,
2013-08-19 05:15:00,69.6,68.4,30.03,East,86,2.0,7.0,96,0.00,,,0.02,meteohub,2013-08-19 10:15:00,
2013-08-19 05:20:00,69.6,68.4,30.02,East,93,1.0,6.0,96,0.00,,,0.02,meteohub,2013-08-19 10:20:00,
2013-08-19 05:25:00,69.6,68.4,30.03,East,91,0.0,5.0,96,0.00,,,0.02,meteohub,2013-08-19 10:25:00,
2013-08-19 05:30:00,69.6,68.4,30.03,East,90,3.0,5.0,96,0.00,,,0.02,meteohub,2013-08-19 10:30:00,
2013-08-19 05:35:00,69.6,68.4,30.03,ESE,106,0.0,5.0,96,0.00,,,0.02,meteohub,2013-08-19 10:35:00,
2013-08-19 05:40:00,69.6,68.4,30.03,East,94,1.0,5.0,96,0.00,,,0.02,meteohub,2013-08-19 10:40:00,
2013-08-19 05:46:00,69.6,68.4,30.03,ESE,116,0.0,5.0,96,0.00,,,0.02,meteohub,2013-08-19 10:46:00,
2013-08-19 05:51:00,69.6,68.4,30.03,East,96,0.0,3.0,96,0.00,,,0.02,meteohub,2013-08-19 10:51:00,
2013-08-19 05:56:00,69.6,68.4,30.03,East,89,2.0,3.0,96,0.00,,,0.02,meteohub,2013-08-19 10:56:00,
2013-08-19 06:01:00,69.6,68.4,30.03,East,91,3.0,5.0,96,0.00,,,0.02,meteohub,2013-08-19 11:01:00,
2013-08-19 06:06:00,69.8,68.5,30.03,ESE,112,0.0,5.0,96,0.00,,,0.02,meteohub,2013-08-19 11:06:00,
2013-08-19 06:11:00,69.8,68.5,30.03,ENE,66,1.0,5.0,96,0.00,,,0.02,meteohub,2013-08-19 11:11:00,
2013-08-19 06:16:00,70.0,68.7,30.04,East,93,2.0,3.0,96,0.00,,,0.02,meteohub,2013-08-19 11:16:00,
2013-08-19 06:21:00,70.0,68.7,30.04,East,93,0.0,3.0,96,0.00,,,0.02,meteohub,2013-08-19 11:21:00,
2013-08-19 06:27:00,70.0,68.7,30.04,East,89,0.0,3.0,96,0.00,,,0.02,meteohub,2013-08-19 11:27:00,
2013-08-19 06:32:00,70.2,68.9,30.04,SE,124,1.0,2.0,96,0.00,,,0.02,meteohub,2013-08-19 11:32:00,
2013-08-19 06:37:00,70.2,68.9,30.04,ESE,104,1.0,2.0,96,0.00,,,0.02,meteohub,2013-08-19 11:37:00,
2013-08-19 06:42:00,70.2,68.9,30.05,East,95,2.0,3.0,96,0.00,,,0.02,meteohub,2013-08-19 11:42:00,
2013-08-19 06:47:00,70.2,68.9,30.05,East,92,2.0,3.0,96,0.00,,,0.02,meteohub,2013-08-19 11:47:00,
2013-08-19 06:52:00,70.2,68.9,30.05,East,91,2.0,3.0,96,0.00,,,0.02,meteohub,2013-08-19 11:52:00,
2013-08-19 06:57:00,70.3,69.1,30.04,East,96,2.0,5.0,96,0.00,,,0.02,meteohub,2013-08-19 11:57:00,
2013-08-19 07:02:00,70.3,69.1,30.05,ESE,118,2.0,5.0,96,0.00,,,0.02,meteohub,2013-08-19 12:02:00,
2013-08-19 07:07:00,70.3,69.1,30.05,ESE,102,2.0,5.0,96,0.00,,,0.02,meteohub,2013-08-19 12:07:00,
2013-08-19 07:12:00,70.5,69.3,30.05,SE,129,1.0,5.0,96,0.00,,,0.02,meteohub,2013-08-19 12:12:00,
2013-08-19 07:17:00,70.5,69.3,30.06,SE,131,2.0,5.0,96,0.00,,,0.02,meteohub,2013-08-19 12:17:00,
2013-08-19 07:22:00,70.5,69.3,30.06,SE,135,2.0,5.0,96,0.00,,,0.02,meteohub,2013-08-19 12:22:00,
2013-08-19 07:27:00,70.9,69.6,30.06,ESE,114,1.0,5.0,96,0.00,,,0.02,meteohub,2013-08-19 12:27:00,
2013-08-19 07:32:00,70.9,69.6,30.06,ESE,112,1.0,4.0,96,0.00,,,0.02,meteohub,2013-08-19 12:32:00,
2013-08-19 07:37:00,71.1,69.8,30.06,East,92,2.0,4.0,96,0.00,,,0.02,meteohub,2013-08-19 12:37:00,
2013-08-19 07:42:00,71.1,69.8,30.06,ESE,106,2.0,5.0,96,0.00,,,0.02,meteohub,2013-08-19 12:42:00,
2013-08-19 07:47:00,71.1,69.8,30.06,East,97,0.0,5.0,96,0.00,,,0.02,meteohub,2013-08-19 12:47:00,
2013-08-19 07:52:00,71.2,70.0,30.06,ESE,104,1.0,5.0,96,0.00,,,0.02,meteohub,2013-08-19 12:52:00,
2013-08-19 07:57:00,71.4,70.2,30.06,SE,138,3.0,3.0,96,0.00,,,0.02,meteohub,2013-08-19 12:57:00,
2013-08-19 08:02:00,71.6,70.7,30.06,ESE,105,2.0,5.0,97,0.00,,,0.02,meteohub,2013-08-19 13:02:00,
2013-08-19 08:07:00,71.8,70.5,30.06,ESE,115,1.0,5.0,96,0.00,,,0.02,meteohub,2013-08-19 13:07:00,
2013-08-19 08:12:00,72.0,70.7,30.06,ENE,75,2.0,5.0,96,0.00,,,0.02,meteohub,2013-08-19 13:12:00,
2013-08-19 08:17:00,72.1,70.9,30.06,ENE,75,4.0,6.0,96,0.00,,,0.02,meteohub,2013-08-19 13:17:00,
2013-08-19 08:22:00,72.3,71.4,30.06,ESE,104,1.0,6.0,97,0.00,,,0.02,meteohub,2013-08-19 13:22:00,
2013-08-19 08:27:00,72.3,71.1,30.06,SSE,152,2.0,6.0,96,0.00,,,0.02,meteohub,2013-08-19 13:27:00,
2013-08-19 08:32:00,72.7,71.4,30.06,East,83,3.0,6.0,96,0.00,,,0.02,meteohub,2013-08-19 13:32:00,
2013-08-19 08:37:00,72.9,71.6,30.06,East,93,3.0,6.0,96,0.00,,,0.02,meteohub,2013-08-19 13:37:00,
2013-08-19 08:42:00,72.9,71.6,30.06,SE,133,3.0,5.0,96,0.00,,,0.02,meteohub,2013-08-19 13:42:00,
2013-08-19 08:47:00,73.2,72.0,30.06,ESE,122,2.0,5.0,96,0.00,,,0.02,meteohub,2013-08-19 13:47:00,
2013-08-19 08:52:00,73.2,72.0,30.06,ESE,113,2.0,5.0,96,0.00,,,0.02,meteohub,2013-08-19 13:52:00,
2013-08-19 08:57:00,73.6,72.3,30.06,SE,131,3.0,5.0,96,0.00,,,0.02,meteohub,2013-08-19 13:57:00,
2013-08-19 09:02:00,73.6,72.3,30.06,East,82,3.0,6.0,96,0.00,,,0.02,meteohub,2013-08-19 14:02:00,
2013-08-19 09:07:00,73.8,72.5,30.06,ESE,106,0.0,7.0,96,0.00,,,0.02,meteohub,2013-08-19 14:07:00,
2013-08-19 09:12:00,74.1,72.9,30.06,SSE,150,0.0,7.0,96,0.00,,,0.02,meteohub,2013-08-19 14:12:00,
2013-08-19 09:17:00,74.5,73.2,30.07,ENE,77,0.0,7.0,96,0.00,,,0.02,meteohub,2013-08-19 14:17:00,
2013-08-19 09:22:00,74.7,73.2,30.07,ESE,108,2.0,4.0,95,0.00,,,0.02,meteohub,2013-08-19 14:22:00,
2013-08-19 09:27:00,74.8,73.2,30.07,East,83,1.0,3.0,95,0.00,,,0.02,meteohub,2013-08-19 14:27:00,
2013-08-19 09:32:00,75.2,73.6,30.07,East,85,3.0,3.0,95,0.00,,,0.02,meteohub,2013-08-19 14:32:00,
2013-08-19 09:37:00,75.7,73.9,30.07,SE,136,0.0,5.0,94,0.00,,,0.02,meteohub,2013-08-19 14:37:00,
2013-08-19 09:42:00,75.9,73.8,30.07,East,89,1.0,5.0,93,0.00,,,0.02,meteohub,2013-08-19 14:42:00,
2013-08-19 09:47:00,76.3,74.5,30.07,East,96,0.0,5.0,94,0.00,,,0.02,meteohub,2013-08-19 14:47:00,
2013-08-19 09:52:00,76.6,74.1,30.07,East,92,2.0,3.0,92,0.00,,,0.02,meteohub,2013-08-19 14:52:00,
2013-08-19 09:57:00,76.6,74.1,30.07,East,91,3.0,3.0,92,0.00,,,0.02,meteohub,2013-08-19 14:57:00,
2013-08-19 10:02:00,76.5,74.3,30.07,East,85,2.0,5.0,93,0.00,,,0.02,meteohub,2013-08-19 15:02:00,
2013-08-19 10:07:00,76.8,74.7,30.07,East,86,0.0,5.0,93,0.00,,,0.02,meteohub,2013-08-19 15:07:00,
2013-08-19 10:12:00,77.5,75.0,30.07,ENE,69,1.0,5.0,92,0.00,,,0.02,meteohub,2013-08-19 15:12:00,
2013-08-19 10:17:00,77.9,75.4,30.07,ENE,66,0.0,5.0,92,0.00,,,0.02,meteohub,2013-08-19 15:17:00,
2013-08-19 10:22:00,78.6,75.7,30.07,ESE,116,2.0,5.0,91,0.00,,,0.02,meteohub,2013-08-19 15:22:00,
2013-08-19 10:27:00,79.5,76.3,30.07,SSE,152,0.0,5.0,90,0.00,,,0.02,meteohub,2013-08-19 15:27:00,
2013-08-19 10:32:00,80.2,76.1,30.07,East,90,0.0,5.0,87,0.00,,,0.02,meteohub,2013-08-19 15:32:00,
2013-08-19 10:37:00,80.6,75.7,30.07,NE,41,3.0,5.0,85,0.00,,,0.02,meteohub,2013-08-19 15:37:00,
2013-08-19 10:42:00,81.0,76.5,30.07,East,100,3.0,4.0,86,0.00,,,0.02,meteohub,2013-08-19 15:42:00,
2013-08-19 10:47:00,81.3,76.5,30.07,ENE,72,3.0,5.0,85,0.00,,,0.02,meteohub,2013-08-19 15:47:00,
2013-08-19 10:52:00,81.7,76.6,30.08,SSE,168,0.0,5.0,85,0.00,,,0.02,meteohub,2013-08-19 15:52:00,
2013-08-19 10:57:00,82.0,76.3,30.08,ESE,107,2.0,7.0,83,0.00,,,0.02,meteohub,2013-08-19 15:57:00,
2013-08-19 11:02:00,82.2,77.2,30.08,East,100,2.0,7.0,85,0.00,,,0.02,meteohub,2013-08-19 16:02:00,
2013-08-19 11:07:00,82.9,77.2,30.07,ESE,102,1.0,7.0,83,0.00,,,0.02,meteohub,2013-08-19 16:07:00,
2013-08-19 11:12:00,83.1,76.6,30.08,ESE,107,1.0,8.0,81,0.00,,,0.02,meteohub,2013-08-19 16:12:00,
2013-08-19 11:17:00,82.8,76.6,30.08,SE,125,1.0,8.0,82,0.00,,,0.02,meteohub,2013-08-19 16:17:00,
2013-08-19 11:22:00,83.1,78.1,30.07,SSW,202,0.0,8.0,85,0.00,,,0.02,meteohub,2013-08-19 16:22:00,
2013-08-19 11:27:00,83.7,77.5,30.07,SSE,159,1.0,8.0,82,0.00,,,0.02,meteohub,2013-08-19 16:27:00,
2013-08-19 11:32:00,83.7,76.8,30.07,ESE,114,5.0,8.0,80,0.00,,,0.02,meteohub,2013-08-19 16:32:00,
2013-08-19 11:37:00,83.7,77.2,30.07,SE,135,1.0,8.0,81,0.00,,,0.02,meteohub,2013-08-19 16:37:00,
2013-08-19 11:42:00,84.0,76.8,30.07,SE,127,2.0,8.0,79,0.00,,,0.02,meteohub,2013-08-19 16:42:00,
2013-08-19 11:47:00,84.2,76.6,30.06,NE,49,0.0,7.0,78,0.00,,,0.02,meteohub,2013-08-19 16:47:00,
2013-08-19 11:52:00,84.7,77.5,30.06,SE,134,4.0,7.0,79,0.00,,,0.02,meteohub,2013-08-19 16:52:00,
2013-08-19 11:57:00,85.1,77.0,30.06,East,91,3.0,5.0,77,0.00,,,0.02,meteohub,2013-08-19 16:57:00,
2013-08-19 12:02:00,84.7,77.2,30.06,East,100,3.0,7.0,78,0.00,,,0.02,meteohub,2013-08-19 17:02:00,
2013-08-19 12:07:00,84.6,77.4,30.06,ESE,102,1.0,7.0,79,0.00,,,0.02,meteohub,2013-08-19 17:07:00,
2013-08-19 12:12:00,84.4,76.8,30.06,East,95,1.0,6.0,78,0.00,,,0.02,meteohub,2013-08-19 17:12:00,
2013-08-19 12:17:00,84.6,77.0,30.05,SE,143,0.0,6.0,78,0.00,,,0.02,meteohub,2013-08-19 17:17:00,
2013-08-19 12:22:00,84.9,76.8,30.05,SW,217,2.0,5.0,77,0.00,,,0.02,meteohub,2013-08-19 17:22:00,
2013-08-19 12:27:00,85.1,77.0,30.05,East,82,1.0,5.0,77,0.00,,,0.02,meteohub,2013-08-19 17:27:00,
2013-08-19 12:32:00,85.3,76.1,30.05,South,180,1.0,5.0,74,0.00,,,0.02,meteohub,2013-08-19 17:32:00,
2013-08-19 12:37:00,85.5,77.0,30.05,East,94,6.0,6.0,76,0.00,,,0.02,meteohub,2013-08-19 17:37:00,
2013-08-19 12:42:00,85.5,77.0,30.05,SE,129,0.0,7.0,76,0.00,,,0.02,meteohub,2013-08-19 17:42:00,
2013-08-19 12:47:00,85.6,77.5,30.04,SE,127,3.0,7.0,77,0.00,,,0.02,meteohub,2013-08-19 17:47:00,
2013-08-19 12:52:00,85.8,77.0,30.05,East,92,5.0,7.0,75,0.00,,,0.02,meteohub,2013-08-19 17:52:00,
2013-08-19 12:57:00,85.6,77.2,30.04,ENE,78,3.0,6.0,76,0.00,,,0.02,meteohub,2013-08-19 17:57:00,
2013-08-19 13:02:00,85.6,78.4,30.04,NE,49,1.0,6.0,79,0.00,,,0.02,meteohub,2013-08-19 18:02:00,
2013-08-19 13:07:00,85.6,77.2,30.04,SE,130,1.0,6.0,76,0.00,,,0.02,meteohub,2013-08-19 18:07:00,
2013-08-19 13:12:00,85.8,77.7,30.04,East,93,0.0,4.0,77,0.00,,,0.02,meteohub,2013-08-19 18:12:00,
2013-08-19 13:17:00,86.2,78.4,30.03,NE,56,2.0,4.0,78,0.00,,,0.02,meteohub,2013-08-19 18:17:00,
2013-08-19 13:22:00,86.5,78.1,30.03,NNE,27,4.0,4.0,76,0.00,,,0.02,meteohub,2013-08-19 18:22:00,
2013-08-19 13:27:00,86.5,78.1,30.03,North,10,1.0,5.0,76,0.00,,,0.02,meteohub,2013-08-19 18:27:00,
2013-08-19 13:32:00,86.7,77.0,30.03,ESE,103,3.0,5.0,73,0.00,,,0.02,meteohub,2013-08-19 18:32:00,
2013-08-19 13:37:00,86.5,76.8,30.02,NE,41,3.0,7.0,73,0.00,,,0.02,meteohub,2013-08-19 18:37:00,
2013-08-19 13:42:00,86.2,77.0,30.02,ENE,68,3.0,7.0,74,0.00,,,0.02,meteohub,2013-08-19 18:42:00,
2013-08-19 13:47:00,85.8,76.6,30.01,East,80,0.0,7.0,74,0.00,,,0.02,meteohub,2013-08-19 18:47:00,
2013-08-19 13:52:00,85.6,77.2,30.02,East,80,0.0,4.0,76,0.00,,,0.02,meteohub,2013-08-19 18:52:00,
2013-08-19 13:57:00,85.3,77.7,30.01,West,263,1.0,4.0,78,0.01,,,0.03,meteohub,2013-08-19 18:57:00,
2013-08-19 14:02:00,84.7,79.0,30.01,ESE,105,1.0,4.0,83,0.02,,,0.04,meteohub,2013-08-19 19:02:00,
2013-08-19 14:07:00,84.0,79.0,30.01,East,98,0.0,4.0,85,0.03,,,0.05,meteohub,2013-08-19 19:07:00,
2013-08-19 14:12:00,83.7,78.6,30.01,NE,53,0.0,4.0,85,0.03,,,0.05,meteohub,2013-08-19 19:12:00,
2013-08-19 14:17:00,83.8,80.2,30.01,NE,45,1.0,3.0,89,0.03,,,0.05,meteohub,2013-08-19 19:17:00,
2013-08-19 14:22:00,84.0,79.7,30.01,ESE,118,1.0,3.0,87,0.03,,,0.05,meteohub,2013-08-19 19:22:00,
2013-08-19 14:27:00,84.0,78.6,30.01,NE,41,2.0,3.0,84,0.03,,,0.05,meteohub,2013-08-19 19:27:00,
2013-08-19 14:32:00,84.2,79.5,30.01,East,95,7.0,7.0,86,0.03,,,0.05,meteohub,2013-08-19 19:32:00,
2013-08-19 14:37:00,84.0,77.9,30.01,East,97,3.0,8.0,82,0.03,,,0.05,meteohub,2013-08-19 19:37:00,
2013-08-19 14:42:00,84.6,77.4,30.01,East,100,7.0,8.0,79,0.03,,,0.05,meteohub,2013-08-19 19:42:00,
2013-08-19 14:47:00,84.7,77.5,30.00,SE,139,0.0,8.0,79,0.03,,,0.05,meteohub,2013-08-19 19:47:00,
2013-08-19 14:52:00,85.5,78.6,30.00,ESE,114,3.0,8.0,80,0.03,,,0.05,meteohub,2013-08-19 19:52:00,
2013-08-19 14:57:00,85.5,78.3,30.00,ESE,118,2.0,8.0,79,0.02,,,0.05,meteohub,2013-08-19 19:57:00,
2013-08-19 15:02:00,85.1,77.0,29.99,East,83,2.0,10.0,77,0.00,,,0.05,meteohub,2013-08-19 20:02:00,
2013-08-19 15:07:00,85.1,76.6,29.99,ESE,118,0.0,10.0,76,0.00,,,0.05,meteohub,2013-08-19 20:07:00,
2013-08-19 15:12:00,85.5,78.3,29.99,East,93,3.0,10.0,79,0.00,,,0.05,meteohub,2013-08-19 20:12:00,
2013-08-19 15:17:00,85.5,77.4,29.99,East,98,5.0,9.0,77,0.00,,,0.05,meteohub,2013-08-19 20:17:00,
2013-08-19 15:22:00,84.6,75.7,29.99,East,93,1.0,9.0,75,0.00,,,0.05,meteohub,2013-08-19 20:22:00,
2013-08-19 15:27:00,84.6,75.4,29.99,ESE,106,3.0,9.0,74,0.00,,,0.05,meteohub,2013-08-19 20:27:00,
2013-08-19 15:32:00,84.7,75.6,29.99,East,99,3.0,9.0,74,0.00,,,0.05,meteohub,2013-08-19 20:32:00,
2013-08-19 15:37:00,84.6,75.7,29.99,ENE,75,7.0,10.0,75,0.00,,,0.05,meteohub,2013-08-19 20:37:00,
2013-08-19 15:42:00,83.8,75.4,29.99,SSE,150,2.0,10.0,76,0.00,,,0.05,meteohub,2013-08-19 20:42:00,
2013-08-19 15:48:00,83.7,74.8,29.99,SE,136,1.0,13.0,75,0.00,,,0.05,meteohub,2013-08-19 20:48:00,
2013-08-19 15:53:00,83.7,74.5,29.99,East,98,5.0,13.0,74,0.00,,,0.05,meteohub,2013-08-19 20:53:00,
2013-08-19 15:58:00,83.3,73.8,29.99,ESE,103,5.0,13.0,73,0.00,,,0.05,meteohub,2013-08-19 20:58:00,
2013-08-19 16:03:00,83.7,74.5,29.99,SE,146,3.0,13.0,74,0.00,,,0.05,meteohub,2013-08-19 21:03:00,
2013-08-19 16:08:00,83.7,75.2,30.00,South,173,3.0,13.0,76,0.00,,,0.05,meteohub,2013-08-19 21:08:00,
2013-08-19 16:13:00,83.3,75.4,30.00,SE,129,3.0,10.0,77,0.00,,,0.05,meteohub,2013-08-19 21:13:00,
2013-08-19 16:18:00,82.6,75.7,30.00,ESE,105,2.0,7.0,80,0.00,,,0.05,meteohub,2013-08-19 21:18:00,
2013-08-19 16:23:00,81.1,75.9,30.00,SSE,162,1.0,7.0,84,0.00,,,0.05,meteohub,2013-08-19 21:23:00,
2013-08-19 16:29:00,79.5,74.7,30.00,NNE,30,0.0,7.0,85,0.03,,,0.08,meteohub,2013-08-19 21:29:00,
2013-08-19 16:34:00,78.4,73.6,30.00,SSW,202,3.0,5.0,85,0.03,,,0.08,meteohub,2013-08-19 21:34:00,
2013-08-19 16:39:00,77.4,72.9,30.00,SE,137,2.0,6.0,86,0.03,,,0.08,meteohub,2013-08-19 21:39:00,
2013-08-19 16:44:00,76.8,73.4,29.99,SSW,195,0.0,6.0,89,0.05,,,0.10,meteohub,2013-08-19 21:44:00,
2013-08-19 16:49:00,76.8,73.4,29.99,South,172,0.0,6.0,89,0.05,,,0.10,meteohub,2013-08-19 21:49:00,
2013-08-19 16:54:00,77.2,73.9,29.99,SSW,210,2.0,5.0,90,0.05,,,0.10,meteohub,2013-08-19 21:54:00,
2013-08-19 16:59:00,78.1,74.8,29.99,SSW,205,1.0,2.0,90,0.05,,,0.10,meteohub,2013-08-19 21:59:00,
2013-08-19 17:04:00,79.0,76.1,29.99,SSW,205,0.0,2.0,91,0.05,,,0.10,meteohub,2013-08-19 22:04:00,
2013-08-19 17:10:00,79.7,76.5,29.98,SSW,205,1.0,2.0,90,0.05,,,0.10,meteohub,2013-08-19 22:10:00,
2013-08-19 17:15:00,79.9,75.0,29.97,ESE,121,2.0,2.0,85,0.05,,,0.10,meteohub,2013-08-19 22:15:00,
2013-08-19 17:20:00,79.7,75.7,29.97,ESE,122,1.0,3.0,88,0.05,,,0.10,meteohub,2013-08-19 22:20:00,
2013-08-19 17:25:00,79.9,75.9,29.98,SE,129,0.0,3.0,88,0.02,,,0.10,meteohub,2013-08-19 22:25:00,
2013-08-19 17:30:00,80.2,76.3,29.98,SE,129,0.0,3.0,88,0.02,,,0.10,meteohub,2013-08-19 22:30:00,
2013-08-19 17:35:00,81.0,77.0,29.98,ENE,62,2.0,3.0,88,0.01,,,0.10,meteohub,2013-08-19 22:35:00,
2013-08-19 17:40:00,81.1,76.8,29.99,East,100,3.0,3.0,87,0.00,,,0.10,meteohub,2013-08-19 22:40:00,
2013-08-19 17:45:00,81.3,77.0,29.99,ESE,102,0.0,3.0,87,0.00,,,0.10,meteohub,2013-08-19 22:45:00,
2013-08-19 17:50:00,81.3,77.0,29.98,East,99,1.0,3.0,87,0.00,,,0.10,meteohub,2013-08-19 22:50:00,
2013-08-19 17:56:00,81.0,76.6,29.98,East,99,1.0,3.0,87,0.00,,,0.10,meteohub,2013-08-19 22:56:00,
2013-08-19 18:01:00,80.6,76.6,29.98,East,99,0.0,2.0,88,0.00,,,0.10,meteohub,2013-08-19 23:01:00,
2013-08-19 18:06:00,80.2,76.1,29.99,East,99,0.0,2.0,87,0.00,,,0.10,meteohub,2013-08-19 23:06:00,
2013-08-19 18:11:00,80.1,76.5,29.99,East,99,0.0,1.0,89,0.00,,,0.10,meteohub,2013-08-19 23:11:00,
2013-08-19 18:16:00,79.7,75.7,30.00,East,99,0.0,1.0,88,0.00,,,0.10,meteohub,2013-08-19 23:16:00,
2013-08-19 18:21:00,79.5,75.6,30.00,East,99,0.0,0.0,88,0.00,,,0.10,meteohub,2013-08-19 23:21:00,
2013-08-19 18:26:00,79.3,75.2,29.99,East,99,0.0,0.0,87,0.00,,,0.10,meteohub,2013-08-19 23:26:00,
2013-08-19 18:31:00,79.2,75.6,30.00,East,100,0.0,0.0,89,0.00,,,0.10,meteohub,2013-08-19 23:31:00,
2013-08-19 18:37:00,79.0,75.7,29.99,East,100,0.0,1.0,90,0.00,,,0.10,meteohub,2013-08-19 23:37:00,
2013-08-19 18:42:00,79.0,75.7,30.00,East,100,0.0,1.0,90,0.00,,,0.10,meteohub,2013-08-19 23:42:00,
2013-08-19 18:47:00,78.8,75.9,30.00,East,100,2.0,2.0,91,0.00,,,0.10,meteohub,2013-08-19 23:47:00,
2013-08-19 18:52:00,78.6,76.1,30.00,East,100,1.0,3.0,92,0.00,,,0.10,meteohub,2013-08-19 23:52:00,
2013-08-19 18:57:00,78.4,75.9,29.99,WNW,282,0.0,3.0,92,0.00,,,0.10,meteohub,2013-08-19 23:57:00,
2013-08-19 19:02:00,78.4,75.9,30.00,WNW,282,0.0,3.0,92,0.00,,,0.10,meteohub,2013-08-20 00:02:00,
2013-08-19 19:07:00,78.3,76.1,30.01,WNW,282,0.0,3.0,93,0.00,,,0.00,meteohub,2013-08-20 00:07:00,
2013-08-19 19:12:00,78.3,76.1,30.01,WNW,282,0.0,1.0,93,0.00,,,0.00,meteohub,2013-08-20 00:12:00,
2013-08-19 19:17:00,78.1,75.6,30.01,WNW,282,0.0,1.0,92,0.00,,,0.00,meteohub,2013-08-20 00:17:00,
2013-08-19 19:22:00,77.7,75.2,30.02,WNW,282,0.0,1.0,92,0.00,,,0.00,meteohub,2013-08-20 00:22:00,
2013-08-19 19:27:00,77.5,75.4,30.01,West,276,0.0,1.0,93,0.00,,,0.00,meteohub,2013-08-20 00:27:00,
2013-08-19 19:32:00,77.4,75.2,30.01,West,276,1.0,3.0,93,0.00,,,0.00,meteohub,2013-08-20 00:32:00,
2013-08-19 19:37:00,77.0,74.8,30.01,West,276,0.0,3.0,93,0.00,,,0.00,meteohub,2013-08-20 00:37:00,
2013-08-19 19:42:00,76.8,74.7,30.01,West,276,0.0,3.0,93,0.00,,,0.00,meteohub,2013-08-20 00:42:00,
2013-08-19 19:47:00,76.6,74.5,30.01,West,275,0.0,2.0,93,0.00,,,0.00,meteohub,2013-08-20 00:47:00,
2013-08-19 19:52:00,76.5,74.3,30.01,WSW,245,0.0,1.0,93,0.00,,,0.00,meteohub,2013-08-20 00:52:00,
2013-08-19 19:57:00,76.3,74.1,30.01,WSW,245,0.0,1.0,93,0.00,,,0.00,meteohub,2013-08-20 00:57:00,
2013-08-19 20:02:00,76.1,73.9,30.01,WSW,245,0.0,0.0,93,0.00,,,0.00,meteohub,2013-08-20 01:02:00,
2013-08-19 20:07:00,75.9,73.8,30.01,WSW,245,0.0,0.0,93,0.00,,,0.00,meteohub,2013-08-20 01:07:00,
2013-08-19 20:12:00,75.9,73.8,30.01,WSW,245,0.0,0.0,93,0.00,,,0.00,meteohub,2013-08-20 01:12:00,
2013-08-19 20:17:00,75.7,73.6,30.01,WSW,245,0.0,0.0,93,0.00,,,0.00,meteohub,2013-08-20 01:17:00,
2013-08-19 20:22:00,75.7,73.9,30.02,WSW,245,0.0,0.0,94,0.00,,,0.00,meteohub,2013-08-20 01:22:00,
2013-08-19 20:27:00,75.6,73.8,30.02,WSW,245,1.0,0.0,94,0.00,,,0.00,meteohub,2013-08-20 01:27:00,
2013-08-19 20:32:00,75.6,73.8,30.02,WSW,245,0.0,1.0,94,0.00,,,0.00,meteohub,2013-08-20 01:32:00,
2013-08-19 20:37:00,75.6,73.8,30.02,WSW,245,0.0,1.0,94,0.00,,,0.00,meteohub,2013-08-20 01:37:00,
2013-08-19 20:42:00,75.6,73.8,30.03,WSW,245,0.0,1.0,94,0.00,,,0.00,meteohub,2013-08-20 01:42:00,
2013-08-19 20:47:00,75.6,73.8,30.03,WSW,245,0.0,1.0,94,0.00,,,0.00,meteohub,2013-08-20 01:47:00,
2013-08-19 20:52:00,75.6,73.8,30.03,WSW,245,0.0,1.0,94,0.00,,,0.00,meteohub,2013-08-20 01:52:00,
2013-08-19 20:57:00,75.6,73.8,30.04,WSW,245,0.0,1.0,94,0.00,,,0.00,meteohub,2013-08-20 01:57:00,
2013-08-19 21:02:00,75.6,73.8,30.04,East,93,2.0,2.0,94,0.00,,,0.00,meteohub,2013-08-20 02:02:00,
2013-08-19 21:07:00,75.6,73.8,30.04,East,86,2.0,2.0,94,0.00,,,0.00,meteohub,2013-08-20 02:07:00,
2013-08-19 21:12:00,75.7,73.9,30.04,ESE,105,1.0,5.0,94,0.00,,,0.00,meteohub,2013-08-20 02:12:00,
2013-08-19 21:17:00,75.7,73.9,30.04,East,86,2.0,5.0,94,0.00,,,0.00,meteohub,2013-08-20 02:17:00,
2013-08-19 21:22:00,75.7,73.9,30.04,East,94,0.0,5.0,94,0.00,,,0.00,meteohub,2013-08-20 02:22:00,
2013-08-19 21:27:00,75.7,73.9,30.04,ENE,68,0.0,3.0,94,0.00,,,0.00,meteohub,2013-08-20 02:27:00,
2013-08-19 21:32:00,75.7,73.9,30.04,East,89,2.0,3.0,94,0.00,,,0.00,meteohub,2013-08-20 02:32:00,
2013-08-19 21:37:00,75.7,73.9,30.04,East,83,0.0,3.0,94,0.00,,,0.00,meteohub,2013-08-20 02:37:00,
2013-08-19 21:42:00,75.7,73.9,30.04,East,83,0.0,3.0,94,0.00,,,0.00,meteohub,2013-08-20 02:42:00,
2013-08-19 21:47:00,75.6,73.8,30.04,East,83,0.0,3.0,94,0.00,,,0.00,meteohub,2013-08-20 02:47:00,
2013-08-19 21:52:00,75.6,73.8,30.04,East,83,0.0,2.0,94,0.00,,,0.00,meteohub,2013-08-20 02:52:00,
2013-08-19 21:57:00,75.6,73.8,30.04,East,83,0.0,2.0,94,0.00,,,0.00,meteohub,2013-08-20 02:57:00,
2013-08-19 22:03:00,75.6,73.8,30.04,East,83,0.0,2.0,94,0.00,,,0.00,meteohub,2013-08-20 03:03:00,
2013-08-19 22:08:00,75.4,73.6,30.04,East,83,0.0,1.0,94,0.00,,,0.00,meteohub,2013-08-20 03:08:00,
2013-08-19 22:13:00,75.4,73.6,30.04,NE,43,2.0,2.0,94,0.00,,,0.00,meteohub,2013-08-20 03:13:00,
2013-08-19 22:18:00,75.2,73.4,30.04,ESE,103,2.0,3.0,94,0.00,,,0.00,meteohub,2013-08-20 03:18:00,
2013-08-19 22:23:00,75.2,73.4,30.04,East,98,0.0,3.0,94,0.00,,,0.00,meteohub,2013-08-20 03:23:00,
2013-08-19 22:28:00,75.2,73.0,30.05,East,95,1.0,3.0,93,0.00,,,0.00,meteohub,2013-08-20 03:28:00,
2013-08-19 22:33:00,75.2,73.0,30.04,East,93,3.0,4.0,93,0.00,,,0.00,meteohub,2013-08-20 03:33:00,
2013-08-19 22:38:00,75.2,73.0,30.05,ENE,73,2.0,4.0,93,0.00,,,0.00,meteohub,2013-08-20 03:38:00,
2013-08-19 22:44:00,75.2,73.0,30.05,East,84,0.0,6.0,93,0.00,,,0.00,meteohub,2013-08-20 03:44:00,
2013-08-19 22:49:00,75.0,72.9,30.05,ESE,110,1.0,6.0,93,0.00,,,0.00,meteohub,2013-08-20 03:49:00,
2013-08-19 22:54:00,75.0,72.9,30.04,East,96,0.0,6.0,93,0.00,,,0.00,meteohub,2013-08-20 03:54:00,
2013-08-19 22:59:00,75.0,72.9,30.04,East,81,0.0,4.0,93,0.00,,,0.00,meteohub,2013-08-20 03:59:00,
2013-08-19 23:01:00,74.8,72.7,30.04,East,87,0.0,4.0,93,0.00,,,0.00,meteohub,2013-08-20 04:01:00,
2013-08-19 23:02:00,74.8,72.7,30.04,ENE,67,4.0,4.0,93,0.00,,,0.00,meteohub,2013-08-20 04:02:00,
2013-08-19 23:03:00,74.8,72.7,30.04,East,81,1.0,4.0,93,0.00,,,0.00,meteohub,2013-08-20 04:03:00,
2013-08-19 23:04:00,74.8,72.7,30.04,East,97,3.0,4.0,93,0.00,,,0.00,meteohub,2013-08-20 04:04:00,
2013-08-19 23:09:00,74.8,72.7,30.04,ENE,63,2.0,5.0,93,0.00,,,0.00,meteohub,2013-08-20 04:09:00,
2013-08-19 23:14:00,74.8,72.7,30.04,ENE,78,3.0,5.0,93,0.00,,,0.00,meteohub,2013-08-20 04:14:00,
2013-08-19 23:19:00,74.8,72.7,30.04,ESE,103,4.0,5.0,93,0.00,,,0.00,meteohub,2013-08-20 04:19:00,
2013-08-19 23:24:00,74.8,72.7,30.05,East,89,3.0,7.0,93,0.00,,,0.00,meteohub,2013-08-20 04:24:00,
2013-08-19 23:29:00,75.0,72.9,30.05,East,92,11.0,11.0,93,0.00,,,0.00,meteohub,2013-08-20 04:29:00,
2013-08-19 23:34:00,75.0,72.9,30.05,SSE,147,8.0,13.0,93,0.00,,,0.00,meteohub,2013-08-20 04:34:00,
2013-08-19 23:39:00,74.8,72.7,30.05,East,88,8.0,13.0,93,0.00,,,0.00,meteohub,2013-08-20 04:39:00,
2013-08-19 23:45:00,74.8,72.3,30.05,ESE,116,4.0,13.0,92,0.00,,,0.00,meteohub,2013-08-20 04:45:00,
2013-08-19 23:50:00,74.7,72.1,30.05,East,91,5.0,12.0,92,0.00,,,0.00,meteohub,2013-08-20 04:50:00,
2013-08-19 23:55:00,74.7,71.8,30.05,ENE,64,9.0,12.0,91,0.00,,,0.00,meteohub,2013-08-20 04:55:00,